Powrót do katalogu

STARLINK-34776

AktywnyŁącznośćVLEO
NORAD 65037·PAYLOAD·🇺🇸 United States

Wystrzelony Jul 30, 2025 z Cape Canaveral Space Force Station

Loading…

Następne Przeloty (najbliższe 24 godziny)

TLE

ŚwieżeSource: CelesTrak SupGP

Epoka: Sep 14, 2026, 22:41 UTC

1 65037C 25161Y   26257.94562500 -.00042517  00000+0 -12563-2 0  2575
2 65037  53.1564 133.9480 0001319  84.7031 231.2932 15.34409866    11

Śledź STARLINK-34776 w czasie rzeczywistym z AllMySat

Download on the App Store